{"data":{"norad_id":62445,"intl_designator":"2024-251P","name":"STARLINK-32683","alt_names":[],"object_type":"PAYLOAD","status":"ACTIVE","operator":null,"country":"US","launch_date":"2024-12-29","launch_site_code":"AFWTR","launch_vehicle":null,"mission":null,"orbit_class":"UNKNOWN","rcs_meters":null,"size_class":null,"mass_kg":null,"dimensions":null,"purposes":["comms"],"wikipedia_slug":null,"has_3d_model":false,"image_url":null,"decayed_at":null,"tle_current":{"epoch":"2026-05-24T21:43:08.760000Z","epoch_age_seconds":83281,"freshness":"FRESH","line1":"1 62445U 24251P   26144.90496250  .00017251  00000+0  59316-3 0  9999","line2":"2 62445  53.1590 341.5474 0001004  84.2030 275.9085 15.30203396 79617","mean_motion":15.30203396,"eccentricity":0.0001004,"inclination_deg":53.159,"raan_deg":341.5474,"arg_perigee_deg":84.203,"mean_anomaly_deg":275.9085,"bstar":0.00059316,"rev_number":7961,"period_min":94.105136857244,"perigee_km":474.51685406448,"apogee_km":475.89300512394,"semimajor_km":6853.3419295942,"source":"CELESTRAK","updated_at":"2026-05-25T13:38:19.659765Z"}}}